King Salmon, AK

5:53 PM AKDT on April 28, 2017 (GMT -0800)
King Salmon

Weather History for PAKN - September, 2012

Change the Weather History Date:

Tuesday, September 4, 2012

  Actual Average Record
Temperature  
Mean Temperature 49 °F 52 °F  
Max Temperature 58 °F 60 °F 74 °F (1933)
Min Temperature 40 °F 44 °F 29 °F (2004)
Degree Days  
Heating Degree Days 16 13  
Month to date heating degree days 60 52  
Since 1 July heating degree days 812 664  
Cooling Degree Days 0    
Month to date cooling degree days 0  
Year to date cooling degree days 0  
Moisture  
Dew Point 45 °F    
Average Humidity 0    
Maximum Humidity 0    
Minimum Humidity 0    
Precipitation  
Precipitation 0.19 in 0.10 in 1.27 in (2014)
Month to date precipitation 0.73 0.43  
Year to date precipitation 16.40 12.03  
Snow  
Snow 0.00 in 0.00 in 0.00 in (2016)
Month to date snowfall 0.0 0.0  
Since 1 July snowfall 0.0 0.0  
Since 1 September snowfall 0.0 0.0  
Snow Depth 0.00 in    
Sea Level Pressure  
Sea Level Pressure 29.49 in    
Wind  
Wind Speed 18 mph (SSE)    
Max Wind Speed 39 mph    
Max Gust Speed 53 mph    
Visibility 10 miles    
Events Rain    
T = Trace of Precipitation, MM = Missing Value Source: NWS Daily Summary

Daily Weather History Graph

Daily Weather History Graph

Search for Another Location

Airport or City:

Trip Planner

Search our weather history database for the weather conditions in past years. The results will help you decide how hot, cold, wet, or windy it might be!

Date:

Astronomy

Sep. 04, 2012 Rise Set
Actual Time 7:33 AM AKDT 9:16 PM AKDT
Civil Twilight 6:50 AM AKDT 9:58 PM AKDT
Nautical Twilight 5:57 AM AKDT 10:50 PM AKDT
Astronomical Twilight 4:53 AM AKDT 11:53 PM AKDT
Moon 9:56 PM AKDT (9/4) 1:07 PM AKDT (9/4)
Length of Visible Light 15h 07m
Length of Day
13h 42m
Waning Gibbous, 82% of the Moon is Illuminated
Sep 4
Waning Gibbous
Sep 8
Last Quarter
Sep 15
New
Sep 22
First Quarter
Sep 29
Full

Hourly Weather History & Observations

Time (AKDT) Temp. Windchill Dew Point Humidity Pressure Visibility Wind Dir Wind Speed Gust Speed Precip Events Conditions
12:54 AM 44.1 °F 38.1 °F 41.0 °F 89% 29.80 in 10.0 mi SSE 11.5 mph - N/A   Overcast
1:54 AM 42.1 °F 37.1 °F 39.9 °F 92% 29.79 in 10.0 mi SSE 8.1 mph - N/A   Mostly Cloudy
2:54 AM 41.0 °F 35.8 °F 39.2 °F 93% 29.77 in 10.0 mi SE 8.1 mph - N/A   Mostly Cloudy
3:54 AM - - 38.7 °F N/A% 29.73 in 10.0 mi SE 6.9 mph - N/A   Mostly Cloudy
4:54 AM 48.0 °F - 41.0 °F 77% 29.70 in 10.0 mi North - - N/A   Overcast
5:54 AM 48.9 °F - 41.0 °F 74% 29.68 in 10.0 mi SE 16.1 mph 25.3 mph N/A   Overcast
6:54 AM 50.0 °F - 41.0 °F 71% 29.64 in 10.0 mi SSE 21.9 mph 28.8 mph N/A   Overcast
7:54 AM 48.9 °F - 42.1 °F 77% 29.58 in 10.0 mi SE 21.9 mph 32.2 mph 0.00 in Rain Light Rain
8:54 AM 48.9 °F - 43.0 °F 80% 29.55 in 10.0 mi SE 16.1 mph 33.4 mph 0.00 in Rain Light Rain
12:55 PM 51.1 °F - 46.9 °F 86% 29.38 in 10.0 mi SSE 28.8 mph 41.4 mph 0.01 in Rain Light Rain
1:54 PM 52.0 °F - 48.0 °F 86% 29.36 in 8.0 mi SSE 35.7 mph 46.0 mph 0.02 in Rain Light Rain
2:54 PM 52.0 °F - 48.9 °F 89% 29.34 in 9.0 mi SSE 29.9 mph 41.4 mph 0.06 in Rain Light Rain
3:54 PM 55.9 °F - 51.1 °F 84% 29.34 in 10.0 mi SSE 24.2 mph 35.7 mph 0.01 in   Overcast
4:54 PM 60.1 °F - 52.0 °F 75% 29.32 in 10.0 mi South 35.7 mph 44.9 mph N/A   Mostly Cloudy
5:54 PM 57.2 °F - 48.2 °F 72% 29.31 in 20.0 mi SSE 31.1 mph 42.6 mph N/A   Mostly Cloudy
6:54 PM 57.9 °F - 48.9 °F 72% 29.32 in 10.0 mi SSE 29.9 mph 38.0 mph 0.00 in   Scattered Clouds
7:54 PM 54.0 °F - 46.9 °F 77% 29.31 in 10.0 mi South 32.2 mph 41.4 mph 0.00 in   Mostly Cloudy
8:54 PM 53.1 °F - 46.0 °F 77% 29.32 in 10.0 mi SSE 26.5 mph 35.7 mph N/A   Mostly Cloudy
9:54 PM 53.1 °F - 45.0 °F 74% 29.34 in 10.0 mi SSE 24.2 mph 35.7 mph N/A   Mostly Cloudy
10:54 PM 52.0 °F - 45.0 °F 77% 29.35 in 10.0 mi SSE 27.6 mph 36.8 mph 0.00 in   Overcast
11:54 PM 52.0 °F - 45.0 °F 77% 29.35 in 9.0 mi SSE 24.2 mph 32.2 mph N/A   Overcast